Time,TemperatureF,DewpointF,PressureIn,WindDirection,WindDirectionDegrees,WindSpeedMPH,WindSpeedGustMPH,Humidity,HourlyPrecipIn,Conditions,Clouds,dailyrainin,SoftwareType,DateUTC
2013-02-11 00:00:00,62.1,61.5,29.79,South,180,2.7,-999.0,98,-99.99,,,0.00,Acu-Link.com,2013-02-11 06:00:00,
2013-02-11 00:15:00,62.1,61.5,29.78,WNW,292,2.2,-999.0,98,-99.99,,,0.04,Acu-Link.com,2013-02-11 06:15:00,
2013-02-11 00:30:00,62.1,61.5,29.75,NE,45,0.0,-999.0,98,-99.99,,,0.11,Acu-Link.com,2013-02-11 06:30:00,
2013-02-11 00:45:00,61.5,60.9,29.73,ENE,67,0.0,-999.0,98,-99.99,,,0.11,Acu-Link.com,2013-02-11 06:45:00,
2013-02-11 01:00:00,60.8,60.2,29.72,SE,135,2.7,-999.0,98,-99.99,,,0.11,Acu-Link.com,2013-02-11 07:00:00,
2013-02-11 01:15:00,59.9,59.3,29.72,SSE,157,1.7,-999.0,98,-99.99,,,0.11,Acu-Link.com,2013-02-11 07:15:00,
2013-02-11 01:30:00,58.8,58.2,29.73,NNW,337,2.2,-999.0,98,-99.99,,,0.11,Acu-Link.com,2013-02-11 07:30:00,
2013-02-11 01:46:00,58.6,58.0,29.73,NNW,337,0.0,-999.0,98,-99.99,,,0.11,Acu-Link.com,2013-02-11 07:46:00,
2013-02-11 02:01:00,59.2,58.6,29.73,North,0,0.0,-999.0,98,-99.99,,,0.11,Acu-Link.com,2013-02-11 08:01:00,
2013-02-11 02:16:00,59.7,59.1,29.75,WSW,247,1.1,-999.0,98,-99.99,,,0.11,Acu-Link.com,2013-02-11 08:16:00,
2013-02-11 02:31:00,59.9,59.3,29.76,NE,45,2.7,-999.0,98,-99.99,,,0.11,Acu-Link.com,2013-02-11 08:31:00,
2013-02-11 02:46:00,59.5,58.9,29.76,ESE,112,0.0,-999.0,98,-99.99,,,0.11,Acu-Link.com,2013-02-11 08:46:00,
2013-02-11 03:01:00,58.8,58.2,29.77,SE,135,0.0,-999.0,98,-99.99,,,0.11,Acu-Link.com,2013-02-11 09:01:00,
2013-02-11 03:17:00,58.8,58.2,29.77,SE,135,0.0,-999.0,98,-99.99,,,0.11,Acu-Link.com,2013-02-11 09:17:00,
2013-02-11 03:32:00,58.5,57.9,29.77,North,0,0.0,-999.0,98,-99.99,,,0.11,Acu-Link.com,2013-02-11 09:32:00,
2013-02-11 03:47:00,58.5,57.9,29.78,NNW,337,0.0,-999.0,98,-99.99,,,0.11,Acu-Link.com,2013-02-11 09:47:00,
2013-02-11 04:02:00,58.3,57.7,29.82,WNW,292,1.1,-999.0,98,-99.99,,,0.11,Acu-Link.com,2013-02-11 10:02:00,
2013-02-11 04:18:00,59.0,58.4,29.81,NNW,337,2.7,-999.0,98,-99.99,,,0.12,Acu-Link.com,2013-02-11 10:18:00,
2013-02-11 04:33:00,57.4,56.8,29.79,North,0,2.2,-999.0,98,-99.99,,,0.17,Acu-Link.com,2013-02-11 10:33:00,
2013-02-11 04:48:00,57.4,56.8,29.81,West,270,1.7,-999.0,98,-99.99,,,0.17,Acu-Link.com,2013-02-11 10:48:00,
2013-02-11 05:03:00,57.6,57.0,29.80,West,270,1.1,-999.0,98,-99.99,,,0.17,Acu-Link.com,2013-02-11 11:03:00,
2013-02-11 05:18:00,57.6,57.0,29.83,WNW,292,0.0,-999.0,98,-99.99,,,0.17,Acu-Link.com,2013-02-11 11:18:00,
2013-02-11 05:33:00,57.4,56.8,29.82,NE,45,1.1,-999.0,98,-99.99,,,0.17,Acu-Link.com,2013-02-11 11:33:00,
2013-02-11 05:48:00,57.2,56.6,29.81,NE,45,2.2,-999.0,98,-99.99,,,0.17,Acu-Link.com,2013-02-11 11:48:00,
2013-02-11 06:04:00,57.2,56.6,29.85,West,270,0.0,-999.0,98,-99.99,,,0.17,Acu-Link.com,2013-02-11 12:04:00,
2013-02-11 06:19:00,56.7,56.1,29.85,NE,45,4.7,-999.0,98,-99.99,,,0.19,Acu-Link.com,2013-02-11 12:19:00,
2013-02-11 06:34:00,55.9,55.3,29.85,NE,45,4.2,-999.0,98,-99.99,,,0.21,Acu-Link.com,2013-02-11 12:34:00,
2013-02-11 06:49:00,55.8,55.2,29.86,West,270,1.7,-999.0,98,-99.99,,,0.22,Acu-Link.com,2013-02-11 12:49:00,
2013-02-11 07:04:00,55.4,54.8,29.84,North,0,4.2,-999.0,98,-99.99,,,0.22,Acu-Link.com,2013-02-11 13:04:00,
2013-02-11 07:19:00,55.0,54.4,29.86,NNW,337,2.2,-999.0,98,-99.99,,,0.22,Acu-Link.com,2013-02-11 13:19:00,
2013-02-11 07:34:00,54.9,54.3,29.85,ENE,67,0.0,-999.0,98,-99.99,,,0.22,Acu-Link.com,2013-02-11 13:34:00,
2013-02-11 07:49:00,54.9,54.3,29.87,SSE,157,0.0,-999.0,98,-99.99,,,0.23,Acu-Link.com,2013-02-11 13:49:00,
2013-02-11 08:04:00,54.5,53.9,29.88,West,270,0.0,-999.0,98,-99.99,,,0.23,Acu-Link.com,2013-02-11 14:04:00,
2013-02-11 08:20:00,54.0,53.4,29.87,North,0,3.2,-999.0,98,-99.99,,,0.24,Acu-Link.com,2013-02-11 14:20:00,
2013-02-11 08:35:00,53.6,53.0,29.89,NNE,22,0.0,-999.0,98,-99.99,,,0.27,Acu-Link.com,2013-02-11 14:35:00,
2013-02-11 08:50:00,52.9,52.4,29.90,ESE,112,2.2,-999.0,98,-99.99,,,0.33,Acu-Link.com,2013-02-11 14:50:00,
2013-02-11 09:05:00,52.7,52.2,29.94,South,180,2.7,-999.0,98,-99.99,,,0.37,Acu-Link.com,2013-02-11 15:05:00,
2013-02-11 09:20:00,52.9,52.4,29.93,NE,45,0.0,-999.0,98,-99.99,,,0.38,Acu-Link.com,2013-02-11 15:20:00,
2013-02-11 09:35:00,53.1,52.5,29.93,NE,45,0.0,-999.0,98,-99.99,,,0.43,Acu-Link.com,2013-02-11 15:35:00,
2013-02-11 09:50:00,53.2,52.6,29.94,ESE,112,0.0,-999.0,98,-99.99,,,0.48,Acu-Link.com,2013-02-11 15:50:00,
2013-02-11 10:05:00,53.2,52.6,29.92,NE,45,2.7,-999.0,98,-99.99,,,0.53,Acu-Link.com,2013-02-11 16:05:00,
2013-02-11 10:20:00,53.1,52.5,29.93,NE,45,0.0,-999.0,98,-99.99,,,0.57,Acu-Link.com,2013-02-11 16:20:00,
2013-02-11 10:36:00,53.1,52.5,29.96,ENE,67,0.0,-999.0,98,-99.99,,,0.60,Acu-Link.com,2013-02-11 16:36:00,
2013-02-11 10:51:00,52.9,52.4,29.94,NNW,337,2.7,-999.0,98,-99.99,,,0.63,Acu-Link.com,2013-02-11 16:51:00,
2013-02-11 11:06:00,53.2,52.6,29.92,ENE,67,0.0,-999.0,98,-99.99,,,0.68,Acu-Link.com,2013-02-11 17:06:00,
2013-02-11 11:21:00,53.2,52.6,29.91,NE,45,2.7,-999.0,98,-99.99,,,0.69,Acu-Link.com,2013-02-11 17:21:00,
2013-02-11 11:36:00,52.7,52.2,29.91,NE,45,3.2,-999.0,98,-99.99,,,0.70,Acu-Link.com,2013-02-11 17:36:00,
2013-02-11 11:51:00,51.4,50.9,29.89,ENE,67,3.7,-999.0,98,-99.99,,,0.72,Acu-Link.com,2013-02-11 17:51:00,
2013-02-11 12:06:00,52.5,52.0,29.91,SSE,157,0.0,-999.0,98,-99.99,,,0.75,Acu-Link.com,2013-02-11 18:06:00,
2013-02-11 12:21:00,52.9,52.4,29.88,SSE,157,1.1,-999.0,98,-99.99,,,0.78,Acu-Link.com,2013-02-11 18:21:00,
2013-02-11 12:36:00,53.2,52.6,29.86,ESE,112,2.2,-999.0,98,-99.99,,,0.78,Acu-Link.com,2013-02-11 18:36:00,
2013-02-11 12:52:00,53.6,53.0,29.86,SE,135,2.7,-999.0,98,-99.99,,,0.79,Acu-Link.com,2013-02-11 18:52:00,
2013-02-11 13:07:00,54.1,53.5,29.84,SSE,157,2.7,-999.0,98,-99.99,,,0.80,Acu-Link.com,2013-02-11 19:07:00,
2013-02-11 13:22:00,54.0,53.4,29.84,East,90,3.2,-999.0,98,-99.99,,,0.80,Acu-Link.com,2013-02-11 19:22:00,
2013-02-11 13:37:00,54.3,53.7,29.82,ESE,112,3.2,-999.0,98,-99.99,,,0.80,Acu-Link.com,2013-02-11 19:37:00,
2013-02-11 13:52:00,53.4,52.8,29.81,ENE,67,2.7,-999.0,98,-99.99,,,0.80,Acu-Link.com,2013-02-11 19:52:00,
2013-02-11 14:07:00,53.1,52.5,29.82,NE,45,1.7,-999.0,98,-99.99,,,0.80,Acu-Link.com,2013-02-11 20:07:00,
2013-02-11 14:22:00,53.1,52.5,29.85,NNE,22,0.0,-999.0,98,-99.99,,,0.82,Acu-Link.com,2013-02-11 20:22:00,
2013-02-11 14:37:00,53.4,52.8,29.83,ESE,112,1.7,-999.0,98,-99.99,,,0.82,Acu-Link.com,2013-02-11 20:37:00,
2013-02-11 14:52:00,53.1,52.5,29.87,WNW,292,0.0,-999.0,98,-99.99,,,0.84,Acu-Link.com,2013-02-11 20:52:00,
2013-02-11 15:08:00,52.9,52.4,29.85,ESE,112,0.0,-999.0,98,-99.99,,,0.88,Acu-Link.com,2013-02-11 21:08:00,
2013-02-11 15:23:00,53.1,52.5,29.82,NNW,337,3.2,-999.0,98,-99.99,,,0.92,Acu-Link.com,2013-02-11 21:23:00,
2013-02-11 15:38:00,53.1,52.5,29.86,WNW,292,1.1,-999.0,98,-99.99,,,0.94,Acu-Link.com,2013-02-11 21:38:00,
2013-02-11 15:53:00,53.1,52.5,29.85,NNE,22,1.1,-999.0,98,-99.99,,,0.96,Acu-Link.com,2013-02-11 21:53:00,
2013-02-11 16:08:00,53.2,52.6,29.90,SW,225,4.2,-999.0,98,-99.99,,,0.97,Acu-Link.com,2013-02-11 22:08:00,
2013-02-11 16:23:00,53.1,52.5,29.83,NE,45,2.2,-999.0,98,-99.99,,,1.00,Acu-Link.com,2013-02-11 22:23:00,
2013-02-11 16:38:00,53.2,52.6,29.79,NNE,22,2.2,-999.0,98,-99.99,,,1.03,Acu-Link.com,2013-02-11 22:38:00,
2013-02-11 16:53:00,52.9,52.4,29.84,ESE,112,2.2,-999.0,98,-99.99,,,1.03,Acu-Link.com,2013-02-11 22:53:00,
2013-02-11 17:08:00,52.2,51.7,29.82,East,90,1.7,-999.0,98,-99.99,,,1.03,Acu-Link.com,2013-02-11 23:08:00,
2013-02-11 17:24:00,52.0,51.5,29.85,East,90,0.0,-999.0,98,-99.99,,,1.03,Acu-Link.com,2013-02-11 23:24:00,
2013-02-11 17:39:00,51.8,51.3,29.87,ESE,112,1.1,-999.0,98,-99.99,,,1.03,Acu-Link.com,2013-02-11 23:39:00,
2013-02-11 17:54:00,51.8,51.3,29.88,NNE,22,2.7,-999.0,98,-99.99,,,1.05,Acu-Link.com,2013-02-11 23:54:00,
2013-02-11 18:09:00,51.4,50.9,29.88,ESE,112,0.0,-999.0,98,-99.99,,,1.06,Acu-Link.com,2013-02-12 00:09:00,
2013-02-11 18:24:00,51.4,50.9,29.87,ENE,67,0.0,-999.0,98,-99.99,,,1.06,Acu-Link.com,2013-02-12 00:24:00,
2013-02-11 18:39:00,51.4,50.9,29.85,NE,45,2.2,-999.0,98,-99.99,,,1.06,Acu-Link.com,2013-02-12 00:39:00,
2013-02-11 18:54:00,51.4,50.9,29.89,West,270,3.7,-999.0,98,-99.99,,,1.06,Acu-Link.com,2013-02-12 00:54:00,
2013-02-11 19:09:00,51.4,50.9,29.89,North,0,2.7,-999.0,98,-99.99,,,1.06,Acu-Link.com,2013-02-12 01:09:00,
2013-02-11 19:24:00,51.6,51.1,29.87,NNW,337,1.7,-999.0,98,-99.99,,,1.07,Acu-Link.com,2013-02-12 01:24:00,
2013-02-11 19:39:00,51.4,50.9,29.89,SSW,202,1.7,-999.0,98,-99.99,,,1.07,Acu-Link.com,2013-02-12 01:39:00,
2013-02-11 19:55:00,51.3,50.8,29.89,NE,45,1.7,-999.0,98,-99.99,,,1.07,Acu-Link.com,2013-02-12 01:55:00,
2013-02-11 20:10:00,51.3,50.8,29.89,ENE,67,2.2,-999.0,98,-99.99,,,1.07,Acu-Link.com,2013-02-12 02:10:00,
2013-02-11 20:25:00,51.1,50.6,29.90,NE,45,1.7,-999.0,98,-99.99,,,1.07,Acu-Link.com,2013-02-12 02:25:00,
2013-02-11 20:40:00,51.1,50.6,29.88,NE,45,0.0,-999.0,98,-99.99,,,1.07,Acu-Link.com,2013-02-12 02:40:00,
2013-02-11 20:55:00,50.7,50.2,29.88,NNE,22,2.7,-999.0,98,-99.99,,,1.07,Acu-Link.com,2013-02-12 02:55:00,
2013-02-11 21:10:00,50.7,50.2,29.88,ESE,112,0.0,-999.0,98,-99.99,,,1.07,Acu-Link.com,2013-02-12 03:10:00,
2013-02-11 21:25:00,50.7,50.2,29.87,NE,45,1.7,-999.0,98,-99.99,,,1.07,Acu-Link.com,2013-02-12 03:25:00,
2013-02-11 21:40:00,50.5,50.0,29.89,WNW,292,1.7,-999.0,98,-99.99,,,1.07,Acu-Link.com,2013-02-12 03:40:00,
2013-02-11 21:55:00,50.4,49.9,29.88,NE,45,2.2,-999.0,98,-99.99,,,1.10,Acu-Link.com,2013-02-12 03:55:00,
2013-02-11 22:11:00,50.4,49.9,29.88,NE,45,0.0,-999.0,98,-99.99,,,1.14,Acu-Link.com,2013-02-12 04:11:00,
2013-02-11 22:26:00,50.2,49.7,29.88,NW,315,2.7,-999.0,98,-99.99,,,1.15,Acu-Link.com,2013-02-12 04:26:00,
2013-02-11 22:41:00,50.0,49.5,29.86,ESE,112,1.7,-999.0,98,-99.99,,,1.15,Acu-Link.com,2013-02-12 04:41:00,
2013-02-11 22:56:00,50.0,49.5,29.86,SE,135,2.2,-999.0,98,-99.99,,,1.15,Acu-Link.com,2013-02-12 04:56:00,
2013-02-11 23:11:00,50.0,49.5,29.88,NE,45,0.0,-999.0,98,-99.99,,,1.15,Acu-Link.com,2013-02-12 05:11:00,
2013-02-11 23:26:00,50.0,49.5,29.87,ESE,112,1.1,-999.0,98,-99.99,,,1.17,Acu-Link.com,2013-02-12 05:26:00,
2013-02-11 23:42:00,50.0,49.5,29.86,SW,225,0.0,-999.0,98,-99.99,,,1.20,Acu-Link.com,2013-02-12 05:42:00,
2013-02-11 23:57:00,50.0,49.5,29.85,NE,45,0.0,-999.0,98,-99.99,,,1.22,Acu-Link.com,2013-02-12 05:57:00,